Back to catalog

COSMOS 970 DEB

AliveLEO
NORAD 65010·DEBRIS·🇷🇺 Russia

Launched Dec 21, 1977 from Baikonur Cosmodrome

Loading…

Next Passes (next 24 hours)

TLE

AgingSource: Space-Track

Epoch: Sep 9, 2026, 01:45 UTC

1 65010U 77121DX  26252.07350874 -.00000021  00000-0  69041-4 0  9999
2 65010  65.8247 138.0416 0144706 236.7089 192.5355 13.62722991107196

Track COSMOS 970 DEB in real time with AllMySat

Download on the App Store